Weather Roundup
Issued by NWS Chicago, IL

Home | Current Version | Previous Version | Graphics & Text | Print | Product List | Glossary On
Versions: 1 2 3 4 5 6 7 8 9 10 11 12 13 14 15 16 17 18 19 20 21 22 23 24 25 26 27 28 29 30 31 32 33 34 35 36 37 38 39 40 41 42 43 44 45 46 47 48 49 50
000
NZUS59 KLOT 060102
HRRLOT

CHICAGO AREA WEATHER ROUNDUP
NATIONAL WEATHER SERVICE CHICAGO/ROMEOVILLE IL
800 PM CDT SUN JUL 05 2015

NOTE: "FAIR" INDICATES FEW OR NO CLOUDS BELOW 12,000 FEET WITH NO
SIGNIFICANT WEATHER AND/OR OBSTRUCTIONS TO VISIBILITY.

* THESE STATIONS ARE NOT UNDER NWS QUALITY CONTROL. THEY ALSO MAY NOT
  REPORT WEATHER SUCH AS PRECIPITATION OR FOG.

ILZ005-006-012>014-019>023-060200-
NORTHEAST ILLINOIS

CITY           SKY/WX    TMP DP  RH WIND       PRES   REMARKS
OHARE          CLEAR     78  60  53 S9        30.01F
MIDWAY         CLEAR     82  60  47 S8        30.02S HX  82
AURORA         CLEAR     77  63  61 S5        30.02F
WAUKEGAN       CLEAR     72  60  66 SE6       30.01S
DUPAGE AIRPORT CLEAR     75  63  66 S5        30.02S
WHEELING       CLEAR     80  59  48 SW5       30.02F HX  81
NORTHERLY IS     N/A     69  62  78 S5          N/A
$$

WIZ051-052-058>065-066-070>072-060200-
SOUTHEAST WISCONSIN

CITY           SKY/WX    TMP DP  RH WIND       PRES   REMARKS
MILWAUKEE      PTCLDY    74  59  59 S9        30.01S
KENOSHA*       CLEAR     75  60  59 S8        30.02S
RACINE*        CLEAR     71  58  63 S8        30.03F
WAUKESHA       CLEAR     75  61  60 SE14      30.02S
$$

INZ001>003-010>013-019-020-060200-
NORTHWEST INDIANA

CITY           SKY/WX    TMP DP  RH WIND       PRES   REMARKS
GARY*          PTCLDY   N/A N/A N/A S5        30.04S
MICHIGAN CITY* NOT AVBL
RENSSELAER*    NOT AVBL
$$

LMZ740>746-060200-
SOUTHERN LAKE MICHIGAN

STATION/POSITION TIME  SKY/WX   TEMP WIND        PRES    VSBY
                                AIR  DIR/SP/G
                 (UTC)          (F)  (DEG/KT/KT) (MB)    (MI)
HARRISON CRIB    0000            71  100/ 14/ 16   N/A
BURNHAM HARBOR   0000            71  180/  2/  4   N/A
CALUMET HARBOR   0000            73   90/  6/  8   N/A
BURNS HARBOR     0000            72   60/  5/  7 1017.6F
MICHIGAN CITY    0000            70   40/  8/ 10   N/A
$$

ABBREVIATIONS USED IN REMARKS
   TC - TEMPERATURE IN CELSIUS
  WCI - WIND CHILL INDEX
   HX - HEAT INDEX
  VSB - VISIBILITY
$$


USA.gov is the U.S. government's official web portal to all federal, state and local government web resources and services.